Miscellaneous Local Product
Issued by NWS Hastings, NE

Home | Current Version | Previous Version | Graphics & Text | Print | Product List | Glossary On
Versions: 1 2 3 4 5 6 7 8 9 10 11 12 13 14 15 16 17 18 19 20 21 22 23 24 25 26 27 28 29 30 31 32 33 34 35 36 37 38 39 40 41 42 43 44 45 46 47 48 49 50
000
AXUS43 KGID 230302
MISGRI

GID CWA HOURLY WEATHER ROUNDUP
NATIONAL WEATHER SERVICE HASTINGS NE
900 PM CST WED FEB 22 2017

NOTE: "FAIR" INDICATES FEW OR NO CLOUDS BELOW 12,000 FEET WITH NO
SIGNIFICANT WEATHER AND/OR OBSTRUCTIONS TO VISIBILITY.

...SOUTH CENTRAL NEBRASKA...

CITY           SKY/WX    TMP DP  RH WIND       PRES   REMARKS
GRAND ISLAND   CLEAR     42  33  70 NE6       29.79R
HASTINGS       CLEAR     45  30  55 NE7       29.78R
KEARNEY        CLEAR     43  27  52 N14       29.77S
ORD            CLEAR     40  28  62 N3        29.79R
YORK           CLEAR     45  32  61 N13       29.77R
AURORA         CLEAR     44  31  62 N12       29.77S
LEXINGTON      CLEAR     42  25  50 NE9       29.76F
HOLDREGE       CLEAR     44  23  44 NE12      29.76R
HEBRON         CLEAR     52  32  47 NE8       29.75R

...NEBRASKA PANHANDLE...

CITY           SKY/WX    TMP DP  RH WIND       PRES   REMARKS
CHADRON        CLOUDY    38  30  73 NE16      29.88R WCI  29
ALLIANCE       CLOUDY    42  29  59 NE23G29   29.81R
SCOTTSBLUFF    CLOUDY    43  24  47 CALM      29.81F
SIDNEY         PTCLDY    42  16  34 NE10      29.78F

...WESTERN AND NORTH CENTRAL NEBRASKA...

CITY           SKY/WX    TMP DP  RH WIND       PRES   REMARKS
VALENTINE      MOCLDY    38  32  79 N14       29.87R WCI  30
AINSWORTH      CLEAR     39  36  89 N16       29.85S WCI  30
ONEILL         CLEAR     45  37  73 N14       29.84R
BROKEN BOW     PTCLDY    40  29  64 N6        29.78S
IMPERIAL       CLEAR     39  21  48 NE9       29.75F WCI  33
NORTH PLATTE   CLEAR     43  23  45 NE9       29.77S
MCCOOK         CLEAR     45  24  43 NE9       29.73F

...EASTERN NEBRASKA...

CITY           SKY/WX    TMP DP  RH WIND       PRES   REMARKS
NORFOLK        CLEAR     48  35  60 N13       29.78R
SO SIOUX CITY  CLEAR     49  40  71 N15       29.79R
TEKAMAH        CLEAR     47  39  74 N3        29.78R
COLUMBUS       CLEAR     45  30  57 CALM      29.79R
ALBION         CLEAR     48  32  53 N7        29.79R
OMAHA EPPLEY   CLEAR     48  35  60 N9        29.76R
OFFUTT AFB     CLEAR     56  37  47 N15G24    29.75R
MILLARD        CLEAR     57  37  47 N6        29.76S
LINCOLN        CLEAR     47  33  58 N10       29.77R
NEBRASKA CITY  CLEAR     55  28  36 N10       29.74R
BEATRICE       CLEAR     54  35  49 NE10      29.74R
FALLS CITY     PTCLDY    57  40  52 N9        29.72R

...NORTHERN KANSAS...

CITY           SKY/WX    TMP DP  RH WIND       PRES   REMARKS
GOODLAND       CLEAR     41  21  44 E6        29.71F
HILL CITY      CLEAR     44  24  45 CALM      29.72R
NORTON         CLEAR     43  18  36 N5        29.72R
PHILLIPSBURG   CLEAR     54  25  32 N8        29.72S
SMITH CENTER   CLEAR     54  25  32 NE14      29.72S
HAYS             N/A     49  29  46 NE7       29.71S
RUSSELL        PTCLDY    59  29  31 NE8       29.68S
CONCORDIA      CLEAR     55  29  36 NE9       29.71S
SALINA         CLEAR     57  34  41 CALM      29.70S
TOPEKA         PTCLDY    52  42  69 CALM      29.68R



USA.gov is the U.S. government's official web portal to all federal, state and local government web resources and services.